Погода в Озерном

Россия / Оренбургская область     51°47′26″N   51°27′27″E
темп.,
°C
ветер,
м/с
пор.,
м/с
влажн.,
%
обл.,
%
осадки,
мм/ч
давл.,
гПа
погр.,
м
8 мая, сб
сб823:00+16зсз2253100 0.0 101732
02:00+15сз1152100 0.0 101711
05:00+14з0053100 0.0 101611
08:00+16ссв11535 0.0 101798
11:00+19с01404 0.0 10171119
14:00+21юз233234 0.0 10162415
17:00+22зюз243288 0.0 10152546
20:00+20ююз114382 0.0 101515
9 мая, вс
вс923:00+17ююз224625 0.0 101627
02:00+15ююв225499 0.0 101516
05:00+15ююв3454100 0.0 101575
08:00+16ююв37585 0.0 1015207
11:00+21ююв574110 0.0 10151018
14:00+24ю663469 0.0 10142384
17:00+24ю5633100 0.0 10142505
20:00+21ююв354868 0.0 101495
10 мая, пн
пн1023:00+18ююв335479 0.0 101443
02:00+15вюв476096 0.0 101591
05:00+14вюв4105894 0.0 1015170
08:00+16вюв5115899 0.0 1016304
11:00+23вюв684045 0.0 1017733
14:00+25вюв673272 0.0 10172373
17:00+26в663355 0.0 10172553
20:00+22в5104893 0.0 1018249
11 мая, вт
вт1123:00+19в61449100 0.0 1020346
02:00+17вюв51354100 0.0 1021389
05:00+16в51163100 0.0 1021307
08:00+17в5106795 0.0 1023319
11:00+21вюв674999 0.0 1024909
14:00+24в664270 0.0 10241576
17:00+24в6738100 0.0 10241998
20:00+21в5950100 0.0 1024260
12 мая, ср
ср1223:00+17всв5105994 0.0 1025177
02:00+16в4106096 0.0 1025181
05:00+15всв5116285 0.0 1025209
08:00+17в5116597 0.0 1026350
11:00+21вюв675194 0.0 1026726
14:00+24вюв6738100 0.0 10251980
17:00+25в6736100 0.0 10242182
20:00+22в355199 0.0 102495